Weather History for KOGA - June, 2013

Change the Weather History Date:

Wednesday, June 19, 2013

  Actual Average Record
Temperature  
Mean Temperature 72 °F -  
Max Temperature 86 °F 84 °F 103 °F (1988)
Min Temperature 57 °F 54 °F 40 °F (1973)
Cooling Degree Days 6    
Growing Degree Days 22 (Base 50)    
Moisture  
Dew Point 58 °F    
Average Humidity 58    
Maximum Humidity 88    
Minimum Humidity 41    
Precipitation  
Precipitation 0.00 in - - ()
Sea Level Pressure  
Sea Level Pressure 29.88 in    
Wind  
Wind Speed 12 mph (SSE)    
Max Wind Speed 25 mph    
Max Gust Speed 33 mph    
Visibility 10 miles    
Events      
Averages and records for this station are not official NWS values.
T = Trace of Precipitation, MM = Missing Value Source: NWS Daily Summary

Daily Weather History Graph

Daily Weather History Graph

Search for Another Location

Airport or City:

Trip Planner

Search our weather history database for the weather conditions in past years. The results will help you decide how hot, cold, wet, or windy it might be!

Date:

Astronomy

Jun. 19, 2013 Rise Set
Actual Time 5:14 AM MDT 8:22 PM MDT
Civil Twilight 4:40 AM MDT 8:56 PM MDT
Nautical Twilight 3:57 AM MDT 9:39 PM MDT
Astronomical Twilight 3:05 AM MDT 10:31 PM MDT
Moon 4:16 PM MDT (6/19) 2:02 AM MDT (6/19)
Length of Visible Light 16h 15m
Length of Day
15h 08m
Waxing Gibbous, 81% of the Moon is Illuminated
Jun 19
Waxing Gibbous
Jun 23
Full
Jun 29
Last Quarter
Jul 8
New
Jul 15
First Quarter

Hourly Weather History & Observations

Time (MDT) Temp. Heat Index Dew Point Humidity Pressure Visibility Wind Dir Wind Speed Gust Speed Precip Events Conditions
12:15 AM 69.1 °F - 57.4 °F 66% 29.96 in 10.0 mi East 10.4 mph - N/A   Clear
12:35 AM 68.2 °F - 56.5 °F 66% 29.97 in 10.0 mi ENE 3.5 mph - N/A   Clear
12:55 AM 67.6 °F - 55.8 °F 66% 30.01 in 10.0 mi WNW 13.8 mph - N/A   Clear
1:15 AM 68.2 °F - 56.7 °F 67% 30.01 in 10.0 mi NNW 5.8 mph - N/A   Scattered Clouds
1:35 AM 66.9 °F - 56.3 °F 69% 30.00 in 10.0 mi NNW 10.4 mph - N/A   Clear
1:55 AM 67.1 °F - 56.5 °F 69% 30.00 in 10.0 mi North 12.7 mph - N/A   Clear
2:15 AM 65.7 °F - 56.3 °F 72% 29.98 in 10.0 mi NNE 10.4 mph - N/A   Clear
2:35 AM 64.8 °F - 56.3 °F 74% 30.00 in 10.0 mi ENE 6.9 mph - N/A   Clear
2:55 AM 64.6 °F - 56.3 °F 74% 29.99 in 10.0 mi East 5.8 mph - N/A   Clear
3:15 AM 64.6 °F - 56.3 °F 74% 29.98 in 10.0 mi Calm Calm - N/A   Clear
3:35 AM 64.0 °F - 56.7 °F 77% 29.96 in 10.0 mi East 5.8 mph - N/A   Clear
3:55 AM 62.6 °F - 56.3 °F 80% 29.95 in 10.0 mi ESE 3.5 mph - N/A   Clear
4:15 AM 62.2 °F - 56.3 °F 81% 29.94 in 10.0 mi Calm Calm - N/A   Clear
4:35 AM 61.3 °F - 55.6 °F 81% 29.94 in 10.0 mi ESE 3.5 mph - N/A   Clear
4:55 AM 59.4 °F - 54.9 °F 85% 29.93 in 10.0 mi Calm Calm - N/A   Clear
5:15 AM 58.1 °F - 54.3 °F 87% 29.94 in 10.0 mi Calm Calm - N/A   Clear
5:35 AM 58.3 °F - 54.5 °F 87% 29.95 in 10.0 mi Calm Calm - N/A   Clear
5:55 AM 57.7 °F - 54.1 °F 88% 29.95 in 10.0 mi Calm Calm - N/A   Clear
6:15 AM 61.2 °F - 55.6 °F 82% 29.94 in 10.0 mi South 3.5 mph - N/A   Clear
6:35 AM 63.3 °F - 56.8 °F 79% 29.95 in 10.0 mi SSE 5.8 mph - N/A   Clear
6:55 AM 65.1 °F - 57.4 °F 76% 29.95 in 10.0 mi SSE 4.6 mph - N/A   Clear
7:15 AM 67.3 °F - 56.5 °F 68% 29.95 in 10.0 mi SSE 8.1 mph - N/A   Clear
7:35 AM 68.5 °F - 54.5 °F 61% 29.94 in 10.0 mi SE 10.4 mph - N/A   Clear
7:55 AM 69.1 °F - 54.9 °F 60% 29.94 in 10.0 mi SE 9.2 mph - N/A   Clear
8:15 AM 70.9 °F - 55.0 °F 57% 29.94 in 10.0 mi SE 11.5 mph - N/A   Clear
8:35 AM 72.0 °F - 54.7 °F 54% 29.93 in 10.0 mi SE 11.5 mph - N/A   Clear
8:55 AM 72.7 °F - 56.7 °F 57% 29.93 in 10.0 mi SSE 12.7 mph 17.3 mph N/A   Clear
9:15 AM 74.8 °F - 57.6 °F 55% 29.92 in 10.0 mi SSE 15.0 mph 19.6 mph N/A   Clear
9:35 AM 75.7 °F - 58.1 °F 54% 29.92 in 10.0 mi SSE 10.4 mph 18.4 mph N/A   Clear
9:55 AM 77.2 °F - 58.3 °F 52% 29.91 in 10.0 mi South 16.1 mph 19.6 mph N/A   Scattered Clouds
10:15 AM 77.0 °F - 58.3 °F 52% 29.90 in 10.0 mi SSE 17.3 mph 24.2 mph N/A   Scattered Clouds
10:35 AM 79.0 °F - 59.2 °F 51% 29.89 in 10.0 mi South 16.1 mph 23.0 mph N/A   Scattered Clouds
10:55 AM 79.3 °F - 59.4 °F 50% 29.89 in 10.0 mi South 16.1 mph 24.2 mph N/A   Scattered Clouds
11:15 AM 80.2 °F 80.9 °F 59.4 °F 49% 29.89 in 10.0 mi South 19.6 mph 29.9 mph N/A   Scattered Clouds
11:35 AM 80.6 °F 81.2 °F 59.5 °F 49% 29.88 in 10.0 mi South 18.4 mph 25.3 mph N/A   Scattered Clouds
11:55 AM 81.3 °F 81.8 °F 59.7 °F 48% 29.87 in 10.0 mi SSE 20.7 mph 27.6 mph N/A   Clear
12:15 PM 82.4 °F 82.6 °F 59.5 °F 46% 29.86 in 10.0 mi South 23.0 mph 27.6 mph N/A   Scattered Clouds
12:35 PM 82.9 °F 83.2 °F 59.9 °F 46% 29.85 in 10.0 mi South 17.3 mph 27.6 mph N/A   Scattered Clouds
12:55 PM 83.8 °F 84.0 °F 60.3 °F 45% 29.85 in 10.0 mi South 21.9 mph 29.9 mph N/A   Scattered Clouds
1:35 PM 83.1 °F 83.5 °F 61.0 °F 47% 29.84 in 10.0 mi South 19.6 mph 26.5 mph N/A   Mostly Cloudy
1:55 PM 83.8 °F 84.3 °F 61.7 °F 47% 29.84 in 10.0 mi SSE 23.0 mph 27.6 mph N/A   Mostly Cloudy
2:15 PM 83.3 °F 83.5 °F 60.3 °F 46% 29.83 in 10.0 mi SSE 18.4 mph 28.8 mph N/A   Mostly Cloudy
2:35 PM 85.3 °F 85.2 °F 60.4 °F 43% 29.83 in 10.0 mi SSE 24.2 mph 32.2 mph N/A   Mostly Cloudy
2:55 PM 83.8 °F 84.0 °F 60.4 °F 45% 29.82 in 10.0 mi SSE 19.6 mph 32.2 mph N/A   Mostly Cloudy
3:15 PM 83.7 °F 83.8 °F 60.4 °F 45% 29.82 in 10.0 mi South 21.9 mph 29.9 mph N/A   Overcast
3:35 PM 84.0 °F 84.2 °F 60.8 °F 45% 29.81 in 10.0 mi SSE 17.3 mph 29.9 mph N/A   Mostly Cloudy
3:55 PM 85.5 °F 85.2 °F 60.1 °F 42% 29.81 in 10.0 mi South 24.2 mph 31.1 mph N/A   Mostly Cloudy
4:15 PM 83.7 °F 83.8 °F 60.3 °F 45% 29.81 in 10.0 mi SSE 23.0 mph 32.2 mph N/A   Mostly Cloudy
4:35 PM 86.0 °F 85.7 °F 59.9 °F 41% 29.79 in 10.0 mi South 21.9 mph 31.1 mph N/A   Scattered Clouds
4:55 PM 84.2 °F 84.2 °F 59.9 °F 44% 29.79 in 10.0 mi South 19.6 mph 32.2 mph N/A   Scattered Clouds
5:15 PM 85.1 °F 85.0 °F 60.1 °F 43% 29.79 in 10.0 mi SSE 23.0 mph 31.1 mph N/A   Scattered Clouds
5:35 PM 84.9 °F 84.6 °F 59.5 °F 42% 29.79 in 10.0 mi SSE 19.6 mph 33.4 mph N/A   Scattered Clouds
5:55 PM 84.4 °F 84.4 °F 60.4 °F 44% 29.79 in 10.0 mi SSE 19.6 mph 32.2 mph N/A   Scattered Clouds
6:15 PM 82.9 °F 83.2 °F 60.4 °F 46% 29.79 in 10.0 mi SSE 25.3 mph 31.1 mph N/A   Scattered Clouds
6:35 PM 82.8 °F 83.4 °F 61.7 °F 49% 29.78 in 10.0 mi SSE 19.6 mph 26.5 mph N/A   Clear
6:55 PM 82.4 °F 83.0 °F 61.7 °F 49% 29.78 in 10.0 mi SSE 21.9 mph 29.9 mph N/A   Clear
7:15 PM 81.7 °F 82.6 °F 61.7 °F 51% 29.78 in 10.0 mi SSE 17.3 mph 26.5 mph N/A   Clear
7:35 PM 81.1 °F 82.0 °F 61.5 °F 51% 29.78 in 10.0 mi SSE 16.1 mph 26.5 mph N/A   Clear
7:55 PM 80.1 °F 81.1 °F 60.8 °F 52% 29.78 in 10.0 mi SSE 21.9 mph 27.6 mph N/A   Clear
8:15 PM 79.2 °F - 60.4 °F 53% 29.78 in 10.0 mi SSE 17.3 mph 25.3 mph N/A   Clear
8:35 PM 78.6 °F - 59.7 °F 52% 29.78 in 10.0 mi SSE 17.3 mph 24.2 mph N/A   Clear
8:55 PM 77.9 °F - 59.9 °F 54% 29.79 in 10.0 mi SSE 18.4 mph 25.3 mph N/A   Clear
9:15 PM 77.2 °F - 59.9 °F 55% 29.79 in 10.0 mi SSE 17.3 mph 24.2 mph N/A   Clear
9:35 PM 76.6 °F - 59.4 °F 55% 29.81 in 10.0 mi SSE 16.1 mph 23.0 mph N/A   Clear
9:55 PM 76.3 °F - 59.4 °F 56% 29.81 in 10.0 mi SSE 18.4 mph 25.3 mph N/A   Clear
10:15 PM 75.7 °F - 59.4 °F 57% 29.82 in 10.0 mi SSE 19.6 mph 25.3 mph N/A   Clear
10:35 PM 75.6 °F - 59.4 °F 57% 29.82 in 10.0 mi SSE 19.6 mph 26.5 mph N/A   Clear
10:55 PM 75.4 °F - 59.4 °F 57% 29.81 in 10.0 mi SSE 21.9 mph 32.2 mph N/A   Clear
11:15 PM 74.8 °F - 59.5 °F 59% 29.81 in 10.0 mi SSE 19.6 mph 29.9 mph N/A   Clear
11:35 PM 74.1 °F - 59.5 °F 60% 29.81 in 10.0 mi SSE 18.4 mph 26.5 mph N/A   Clear
11:55 PM 73.4 °F - 59.4 °F 61% 29.81 in 10.0 mi SSE 17.3 mph 24.2 mph N/A   Clear